KAISTSAT 4

Satellite information

Favourite Embed

Satellite Type and Status

PAYLOADIN ORBIT

Key statistics

Satellite KAISTSAT 4 at a glance.

Uptime

8059

Days in orbit

Revolutions

≈ 14.7

Per day

Orbit

SSO

Sun Synchronous Orbit

Inclination

98.4

Latest

Satellite identification and parameters

Extended collection of information and parameters for KAISTSAT 4.

Object identification

Identified? True

Debris? False

Object name: KAISTSAT 4

International designator: 2003-042G

Object number (NORAD): 27945

Object ID (CCSDS): 27945

Country: SOUTH KOREA (SKOR)

Current information (Y/N): Y

RCS size: MEDIUM

Orbital parameters

Period: 98.122 minutes

Inclination: 98.3597 deg

SMA: 7046.987 km

Apoapsis: 677.203 km

Periapsis: 660.502 km

RAAN: 91.4014 deg

Eccentricy: 0.00118495

Argument of periapsis: 18.4201 deg

Mean anomaly: 341.743 deg

Mean motion: 14.67565606 rev/day

Mean motion (dot): 0.00001006 rev/day2

B* drag term: 0.00018624149 1/REarth

Two-line elements (TLE)

Creation date: Oct. 20, 2025, 2:10 a.m.

Reference frame: TEME

Reference center: EARTH

Epoch: Oct. 19, 2025, 10:34 p.m. UTC

TLE line 0: 0 KAISTSAT 4

TLE line 1: 1 27945U 03042G 25292.94065272 .00001006 00000-0 18624-3 0 9992

TLE line 2: 2 27945 98.3597 91.4014 0011850 18.4201 341.7430 14.67565606178790

Live tracking on map

Real-time ground track for satellite KAISTSAT 4.

In-orbit conjunctions

There are no conjunctions computed for KAISTSAT 4, at the moment. Check back to stay up to date, as we update our databases every day.

Go to all conjunctions

Associated space launch

Mozhayets 4 (RS 22) was also a training satellite built by the Mozhaisky military academy. It also tested components to be used in upgraded GLONASS satellites.

KAISTSAT 4 was lifted into orbit during the mission ‘Kosmos-3M | Mozhaets-4’, on board a Kosmos-3M space rocket.

The launch took place on Sept. 27, 2003, 6:11 a.m. from 132/1 (132L).

For more information about the launch, click the button.

Launch to space Kosmos-3M | Mozhaets-4
Kosmos-3M | Mozhaets-4

Agency: N/A

Status: Launch Successful

Launch date: Sept. 27, 2003, 6:11 a.m. UTC

Rocket: Kosmos-3M

Launch pad: 132/1 (132L)

Location: Plesetsk Cosmodrome, Russian Federation

...

Latest news about this satellite

There are no fresh news available about this satellite. Check back as we update our databases every day.


Newsletter sign-up

Weekly statistics, charts and insights to help you stay on top of the space industry.